Location: Sungai Kamana Besar
(2.6333°N, 113.4333°E)
Time: 04:56:17
(UTC+00:00)

SL-08 R/B - Pass Details

Date: 29 May 2022
Orbit: 674 x 737 km, 98.5° (Epoch: 26 June)

Event Time Altitude Azimuth Distance (km) Brightness Sun altitude
Rises 21:38:07 0° 190° (S) 3,027 6.3 -9.6°
Reaches altitude 10° 21:40:40 10° 202° (SSW) 2,107 5.4 -9.0°
Maximum altitude 21:44:26 25° 258° (WSW) 1,337 4.2 -8.1°
Drops below altitude 10° 21:48:12 10° 313° (NW) 2,099 5.5 -7.3°
Sets 21:50:45 0° 327° (NNW) 3,014 6.5 -6.7°
